Regional Weather Roundup
Issued by NWS

Home | Current Version | Previous Version | Graphics & Text | Print | Product List | Glossary Off
Versions: 1 2 3 4 5 6 7 8 9 10 11 12 13 14 15 16 17 18 19 20 21 22 23 24 25 26 27 28 29 30 31 32 33 34 35 36 37 38 39 40 41 42 43 44 45 46 47 48 49 50

000
ASUS43 KDMX 240507
RWRIA

WEATHER ROUNDUP FOR IOWA
NATIONAL WEATHER SERVICE DES MOINES IA
1200 AM CDT THU JUL 24 2014

NOTE: "FAIR" INDICATES FEW OR NO CLOUDS BELOW 12,000 FEET WITH NO
SIGNIFICANT WEATHER AND/OR OBSTRUCTIONS TO VISIBILITY.

* - THESE STATIONS ARE NOT NWS STATIONS...THUS NOT UNDER NWS
QUALITY CONTROL.  THEY ALSO DO NOT REPORT WEATHER SUCH
AS PRECIPITATION OR FOG.

IAZ001>003-012>014-020>022-031>034-043>046-240600-
   NORTHWEST IOWA

CITY           SKY/WX    TMP DP  RH WIND       PRES   REMARKS
CARROLL *      CLEAR     61  59  94 CALM      30.18S
CHEROKEE *     CLEAR     66  61  82 E6        30.18S
DENISON *      CLEAR     66  63  88 E5        30.16S
LE MARS *      CLEAR     64  63  94 CALM      30.17S
ORANGE CITY *  CLEAR     68  57  68 E5        30.19R
SHELDON *      CLEAR     61  57  88 E3        30.18R
SIOUX CITY     CLEAR     65  62  90 CALM      30.16S
SPENCER        CLEAR     60  56  86 CALM      30.18S
STORM LAKE *   CLEAR     64  61  88 E5        30.19F
$$

IAZ055>058-069>071-079>083-090>094-240600-
   SOUTHWEST IOWA

CITY           SKY/WX    TMP DP  RH WIND       PRES   REMARKS
ATLANTIC *     PTCLDY    64  61  88 N3        30.17S
AUDUBON *      CLEAR     63  61  94 CALM      30.19S
CLARINDA *     CLEAR     66  63  88 CALM      30.19R
COUNCIL BLFS *   N/A     70  64  83 E6        30.16S
CRESTON *      CLEAR     64  61  88 SE3       30.18S
HARLAN  *      CLEAR     64  61  88 CALM      30.21S
LAMONI         CLEAR     67  59  75 CALM      30.17S
RED OAK *      CLEAR     70  63  78 CALM      30.17S
SHENANDOAH *   MOCLDY    66  64  94 NE3       30.17S
$$

IAZ047>049-059>061-072>074-084-240600-
   CENTRAL IOWA

CITY           SKY/WX    TMP DP  RH WIND       PRES   REMARKS
AMES           CLEAR     62  60  93 SW5       30.16S
ANKENY *       CLEAR     63  61  94 CALM      30.16S
CHARITON *     CLEAR     66  59  77 CALM      30.17S
DES MOINES     CLEAR     71  58  63 S3        30.16S
GRINNELL*      CLEAR     63  57  82 CALM      30.17F
KNOXVILLE *    CLEAR     68  57  68 CALM      30.15S
MARSHALLTOWN   MOCLDY    65  59  81 CALM      30.16S
PELLA *        CLEAR     65  58  77 CALM      30.17S
PERRY *          N/A     61  59  94 CALM      30.17S
$$

IAZ004>006-015-016-023>025-035-036-240600-
   NORTH CENTRAL IOWA

CITY           SKY/WX    TMP DP  RH WIND       PRES   REMARKS
ALGONA *       CLEAR     61  57  88 CALM      30.18S
CLARION *      CLEAR     63  59  88 E6        30.17S
ESTHERVILLE    CLEAR     59  54  83 W5        30.18R
FORT DODGE *   CLEAR     61  57  88 CALM      30.18S
MASON CITY     CLEAR     58  55  90 CALM      30.19R
FOREST CITY *  CLEAR     55  55 100 CALM      30.17F
IOWA FALLS *     N/A     64  59  82 CALM      30.18S
$$

IAZ007>011-017>019-026>030-037>042-050>054-066-240600-
   NORTHEAST IOWA

CITY           SKY/WX    TMP DP  RH WIND       PRES   REMARKS
CEDAR RAPIDS   CLEAR     63  56  78 CALM      30.14S
CHARLES CITY * CLEAR     61  57  88 CALM      30.17S
CLINTON *      MOCLDY    64  57  77 E9        30.19R
DECORAH *      CLEAR     61  57  88 CALM      30.16S
DUBUQUE        CLEAR     65  57  75 NE5       30.16S
MONTICELLO *   CLEAR     59  59 100 CALM      30.15S
OELWEIN *      CLEAR     63  59  88 NE5       30.17S
WATERLOO       CLEAR     63  58  83 CALM      30.15R
$$

IAZ064-065-067-068-078-240600-
   EAST CENTRAL IOWA

CITY           SKY/WX    TMP DP  RH WIND       PRES   REMARKS
DAVENPORT      MOCLDY    62  58  86 CALM      30.16R
IOWA CITY      CLEAR     63  59  87 CALM      30.16S
MT. PLEASANT * CLEAR     63  61  94 CALM      30.15S
MUSCATINE *    CLEAR     63  59  88 CALM      30.15S
QUAD CITIES    CLEAR     61  57  87 CALM      30.15R
$$

IAZ062-063-075>077-085>089-095>099-240600-
   SOUTHEAST IOWA

CITY           SKY/WX    TMP DP  RH WIND       PRES   REMARKS
BURLINGTON     CLEAR     62  59  90 N3        30.15S
FAIRFIELD *    CLEAR     63  59  88 CALM      30.16S
FORT MADISON * CLEAR     63  61  94 CALM      30.16S
KEOKUK *       CLEAR     63  61  94 CALM      30.14S
OSKALOOSA *      N/A     64  59  82 E3        30.15F
CENTERVILLE *  CLEAR     57  57 100 CALM      30.18S
OTTUMWA        CLEAR     62  59  90 CALM      30.15S
WASHINGTON *   CLEAR     61  59  94 CALM      30.16R
$$

ABBREVIATIONS USED IN REMARKS
   TC - TEMPERATURES IN CELSIUS
  WCI - WIND CHILL INDEX
   HX - HEAT INDEX
  VSB - VISIBILITY
$$



USA.gov is the U.S. government's official web portal to all federal, state and local government web resources and services.